Regional Weather Roundup
Issued by NWS Upton, NY

Home | Current Version | Previous Version | Text Only | Print | Product List | Glossary On
Versions: 1 2 3 4 5 6 7 8 9 10 11 12 13 14 15 16 17 18 19 20 21 22 23 24 25 26 27 28 29 30 31 32 33 34 35 36 37 38 39 40 41 42 43 44 45 46 47 48 49 50
000
ASUS41 KOKX 262207
RWROKX

REGIONAL WEATHER ROUNDUP
NATIONAL WEATHER SERVICE NEW YORK NY
600 PM EDT THU MAR 26 2015

NOTE: "FAIR" INDICATES FEW OR NO CLOUDS BELOW 12,000 FEET WITH NO
SIGNIFICANT WEATHER AND/OR OBSTRUCTIONS TO VISIBILITY.

NYZ071-072-176-178-NJZ106-104-262300-
NEW YORK CITY METRO AREA


CITY           SKY/WX    TMP DP  RH WIND       PRES   REMARKS
CENTRAL PARK   CLOUDY    56  52  86 CALM      29.66R FOG
LAGUARDIA APRT CLOUDY    54  52  94 SE8       29.64F FOG
KENNEDY INTL   CLOUDY    52  49  89 S25G32    29.65F
NEWARK/LIBERTY CLOUDY    55  52  89 E3        29.63F FOG
BRNX BOT. GARD   N/A     54  52  94 SE5       29.64F
TETERBORO      LGT RAIN  54  50  86 SE5       29.62F VSB 1
$$

NYZ177-179-078>081-262300-
LONG ISLAND NEW YORK

CITY           SKY/WX    TMP DP  RH WIND       PRES   REMARKS
FARMINGDALE    CLOUDY    54  52  93 SW29G43   29.66S
ISLIP          FOG       52  50  93 SW23G29   29.67F VSB 3/4
SHIRLEY        CLOUDY    50  49  96 S12G20    29.68F FOG
WESTHAMPTON    FOG       49  48  97 SW13G20   29.69F VSB 3/4
MONTAUK POINT    N/A     48  46  93 S13G21    29.70F
$$

NYZ052-065-067-262300-
HUDSON VALLEY

CITY           SKY/WX    TMP DP  RH WIND       PRES   REMARKS
WHITE PLAINS   FOG       52  50  93 SE6       29.62F VSB 1
NEWBURGH       CLOUDY    48  46  93 NE7       29.63F FOG
MONTGOMERY     FOG       45  44  97 N5        29.61F VSB 3/4
POUGHKEEPSIE   FOG       46  44  93 N7        29.63F VSB 1
ALBANY         LGT RAIN  39  37  92 N6        29.70F VSB 3/4 WCI  35
$$

NJZ001-105-106-008-010-013-015-019>022-104-262300-
NEW JERSEY

CITY           SKY/WX    TMP DP  RH WIND       PRES   REMARKS
NEWARK/LIBERTY CLOUDY    55  52  89 E3        29.63F FOG
TETERBORO      LGT RAIN  54  50  86 SE5       29.62F VSB 1
CALDWELL       PTSUNNY   53  49  86 NW3       29.62F FOG
MORRISTOWN     CLOUDY    52  52 100 SE5       29.63F FOG
SOMERVILLE     CLOUDY    55  51  86 CALM      29.60F FOG
SUSSEX         FOG       48  46  93 S3        29.61F VSB 1/2
ANDOVER          N/A     48  47  96 CALM      29.60F
TRENTON        CLOUDY    64  59  83 SW17G25   29.62F
MILLVILLE      CLOUDY    59  57  93 VRB7      29.66F
ATLANTIC CITY  CLOUDY    59  56  89 S16G29    29.67F
WRIGHTSTOWN    CLOUDY    63  63  99 SW14      29.62F
TOMS RIVER     CLOUDY    61  57  88 S10G21    29.66F
BELMAR         PTSUNNY   61  55  82 SW13G22   29.66F
$$

PAZ047>061-062-071-262300-
EASTERN PENNSYLVANIA

CITY           SKY/WX    TMP DP  RH WIND       PRES   REMARKS
PHILADELPHIA   PTSUNNY   65  59  81 S13       29.62F
ALLENTOWN      CLOUDY    51  48  89 N3        29.59F FOG
SCRANTON       LGT RAIN  45  40  82 N14       29.66R
$$

CTZ002-004>006-009-010-012-RIZ004-006-007-MAZ004-011-015-262300-
SOUTHERN NEW ENGLAND
 IN CT

CITY           SKY/WX    TMP DP  RH WIND       PRES   REMARKS
BRADLEY INTL   FOG       47  45  93 CALM      29.63F VSB 1/2
HARTFORD       FOG       48  47  96 SE7       29.65F VSB 1
DANBURY        CLOUDY    48  45  89 CALM      29.64F FOG
WTRBRY/OXFORD  NOT AVBL
BRIDGEPORT     CLOUDY    50  50 100 CALM      29.64F FOG
MERIDEN        RAIN      54  52  93 S8        29.64F FOG
NEW HAVEN      FOG       49  49 100 SW5       29.66F VSB 3/4
CHESTER        FOG       54  54 100 SW13G24   29.67F VSB 3/4
GROTON         RAIN      51  50  96 SW22G31   29.67F FOG
WILLIMANTIC    CLOUDY    55  53  93 SW8       29.65F

 IN RI

CITY           SKY/WX    TMP DP  RH WIND       PRES   REMARKS
PROVIDENCE     TSTM      57  54  89 SW21G30   29.67S FOG
BLOCK ISLAND   CLOUDY    46  45  93 S18G28    29.68F
WESTERLY       LGT RAIN  49  49 100 SW14      29.69F FOG

 IN MA

CITY           SKY/WX    TMP DP  RH WIND       PRES   REMARKS
BOSTON         LGT RAIN  52  50  93 N7        29.66S FOG
WORCESTER      CLOUDY    45  44  97 W10       29.64S FOG
WESTFIELD      FOG       44  42  93 N5        29.64F VSB 1/4
PROVINCETOWN   CLOUDY    48  45  87 S13G21    29.67F VSB 1/2
NANTUCKET      LGT RAIN  46  44  93 S20       29.74F VSB 1/4
$$

ANZ330-335-338-340-345-350-353-355-262300-
COASTAL MARINE OBSERVATIONS


STATION/POSITION TIME  SKY/WX   TEMP    WIND        PRES    VSBY  WAVE
                                AIR SEA DIR/SP/G                  HT/PER
                 (UTC)          (F)     (DEG/KT/KT) (MB)    (MI)  (FT/S)
NY HARB ENTRANCE 2150            46 38  200/ 23/ 29 1004.0          6/ 8
4S FIRE IS       2103               36                N/A           6/ 8
20S FIRE ISLAND  2050               39              1006.1          6/ 8
23SW MTP         2150                                 N/A           6/ 8
HUDSON CANYON    NOT AVBL
EXECUTION ROCKS  NOT AVBL
WESTERN LI SOUND NOT AVBL
CENTRAL LI SOUND NOT AVBL
EASTERN LI SOUND NOT AVBL
ROBBINS REEF     2100            50        CALM     1002.6
$$


>>>>>>>>>>>>>>>>>>>>>>>>>>>> KEY <<<<<<<<<<<<<<<<<<<<<<<<<<<
>                                                          <
>     SKY/WX - SKY CONDITION/PRESENT WEATHER               <
>     TMP    - TEMPERATURE IN FAHRENHEIT                   <
>     DP     - DEWPOINT IN FAHRENHEIT                      <
>     RH     - RELATIVE HUMIDITY IN PERCENT                <
>     WIND   - DIRECTION AND SPEED IN MPH                  <
>     PRES   - MEAN SEA LEVEL PRESSURE IN INCHES OF HG     <
>     WCI    - WIND CHILL INDEX                            <
>     VSB    - VISIBILITY IN MILES                         <
>     HX     - HEAT INDEX                                  <
>     TC     - TEMPERATURE IN CELSIUS                      <
>     VRB    - VARIABLE WIND DIRECTION                     <
>                                                          <
>>>>>>>>>>>>>>>>>>>>>>>>>>>> KEY <<<<<<<<<<<<<<<<<<<<<<<<<<<





USA.gov is the U.S. government's official web portal to all federal, state and local government web resources and services.